Preview of NWS' New Version of Forecast
This preview is not operational and should not be used for support decisions.

Regional Weather Roundup (RWR)

Issued by National Weather Service (NWS)

                            
000
ASUS43 KTOP 210208
RWRKS 

WEATHER ROUNDUP FOR KANSAS
NATIONAL WEATHER SERVICE GOODLAND KS
800 PM CST WED FEB 20 2019

NOTE:  "FAIR" INDICATES FEW OR NO CLOUDS BELOW 12,000 FEET WITH NO
SIGNIFICANT WEATHER AND/OR OBSTRUCTIONS TO VISIBILITY.

KSZ001>006-013>018-027>032-041>047-210300-
NORTHWEST KANSAS
  
CITY           SKY/WX    TMP DP  RH WIND       PRES   REMARKS
GOODLAND       CLEAR     23  15  71 SW6       29.77R                  
HAYS           CLEAR     30  19  63 CALM      29.89R                  
HILL CITY      CLEAR     24  17  74 SW3       29.86R                  
RUSSELL        CLEAR     27  17  66 SW6       29.88R                  
$$

KSZ061>065-074>080-084>089-210300-
SOUTHWEST KANSAS
  
CITY           SKY/WX    TMP DP  RH WIND       PRES   REMARKS
DODGE CITY     CLEAR     33   8  35 E6        29.86R                  
ELKHART        CLEAR     32  13  45 SE13      29.77R WCI  23          
GARDEN CITY    CLEAR     27  16  63 E8        29.83R                  
GREAT BEND     CLEAR     29  16  58 CALM      29.91R                  
LIBERAL        CLEAR     32  13  45 E9        29.82R                  
PRATT          CLEAR     31  25  80 S6        29.92R                  
$$

KSZ066>073-081>083-090>101-210300-
SOUTHEAST KANSAS
  
CITY           SKY/WX    TMP DP  RH WIND       PRES   REMARKS
CHANUTE        CLOUDY    29  26  89 SW6       29.99R                  
COFFEYVILLE    CLOUDY    31  27  85 NW6       30.00R                  
HUTCHINSON     CLEAR     25  22  88 SE5       29.94R                  
MEDICINE LODGE   N/A     29  25  85 SE6       29.93R                  
NEWTON         CLEAR     25  22  88 S8        29.95R                  
PARSONS        CLOUDY    27  26  96 CALM      30.01R FOG              
WICHITA INTL   PTCLDY    28  26  92 S3        29.95R                  
WICHITA JABRA  CLEAR     27  23  85 S5        29.96R FOG              
WICHITA MCCONL CLEAR     28  26  93 SE5       29.95R                  
WINFIELD       CLOUDY    28  24  85 CALM      29.99R                  
$$

KSZ007>012-019>026-033>040-048>060-102>105-210300-
NORTHEAST KANSAS
  
CITY           SKY/WX    TMP DP  RH WIND       PRES   REMARKS
CONCORDIA      CLEAR     27  15  61 SW12      29.89R WCI  17          
EMPORIA        CLEAR     27  24  89 SW9       29.95R                  
LAWRENCE       CLEAR     33  24  69 SW8       29.95R                  
MANHATTAN      CLEAR     31  22  69 W5        29.93R                  
MARYSVILLE     CLEAR     28  21  74 SW7       29.90R                  
OLATHE IND     CLEAR     31  24  75 SW8       29.94R                  
OLATHE EXE     CLEAR     31  24  75 SW5       29.93R                  
SALINA         CLEAR     24  17  74 S9        29.93R                  
TOPEKA BILLARD CLEAR     34  23  64 SW7       29.94R                  
$$